Location: Central Coast NSW, Australia
(33.2407°S, 151.4316°E)
Time: 10:45:04
(UTC+10:00)

Envisat - Pass Details

Date: 23 March 2019
Orbit: 764 x 766 km, 98.2° (Epoch: 20 April)

Event Time Altitude Azimuth Distance (km) Brightness Sun altitude
Rises 20:17:03 0° 168° (SSE) 3,266 6.2 -16.4°
Reaches altitude 10° 20:19:22 10° 168° (SSE) 2,332 5.5 -16.8°
Maximum altitude 20:24:32 89° 74° (ENE) 779 3.0 -17.9°
Drops below altitude 10° 20:29:38 10° 347° (NNW) 2,303 5.5 -19.0°
Sets 20:31:55 0° 346° (NNW) 3,221 6.3 -19.4°
